[[{"header":{"parameterUnit":"m.s-1","parameterCategory":1,"la1":30.2991,"la2":30.254,"lo1":-89.0895,"lo2":-89.0444,"dy":0.0017,"dx":0.0017,"nx":28,"ny":28,"refTime":"2024-06-20T09:00:00:Z","depth":0,"parameterNumber":2,"parameterNumberName":"U-component_of_WINDS"},"data":[0,0,0,0,0,0,0,0,0,0,0,0,0,0,0,0,0,0,0,0,0,0,0,0,0,0,0,0,0,0,0,0,0,0,0,0,0,0,0,0,0,0,0,0,0,0,0,0,0,0,0,0,0,0,0,0,0,0,-4.318,-4.3178,0,-4.3062,-4.3061,-4.3059,-4.2864,-4.2861,-4.2857,-4.2854,-4.2736,-4.2736,-4.2736,0,0,0,0,0,0,0,0,0,0,0,0,0,-4.324,-4.324,-4.318,-4.3178,-4.3177,-4.3062,-4.3061,-4.3059,-4.2865,-4.2861,-4.2856,-4.2852,-4.2736,-4.2736,-4.2736,0,0,0,0,0,0,0,0,0,0,0,0,0,-4.3178,-4.324,-4.318,-4.3066,-4.3055,-4.3063,-4.3061,-4.3059,-4.2866,-4.286,-4.2855,-4.285,-4.2736,-4.2736,-4.2736,-4.2847,0,0,-4.2737,-4.2738,0,0,0,0,0,0,0,0,-4.3181,-4.3176,-4.3084,-4.3074,-4.3061,-4.2972,-4.3038,-4.2988,-4.2867,-4.2938,-4.2854,-4.2847,-4.2819,-4.2812,-4.2802,-4.2841,-4.2836,-4.2737,-4.2738,-4.2738,-4.2738,0,0,0,0,0,0,0,-4.3186,-4.318,-4.3133,-4.3083,-4.3069,-4.3022,-4.3007,-4.3028,-4.291,-4.2931,-4.2917,-4.2905,-4.2812,-4.2802,-4.2798,-4.2834,-4.2737,-4.2738,-4.2738,-4.2738,-4.2959,-4.2965,0,0,0,0,0,0,-4.3207,-4.3185,-4.3137,-4.313,-4.3109,-4.3025,-4.3009,-4.3006,-4.2909,-4.2889,-4.291,-4.2897,-4.2804,-4.2798,-4.2793,-4.2916,-4.2738,-4.2738,-4.2738,-4.2954,-4.2961,-4.2967,0,0,0,0,0,0,-4.3209,-4.3204,-4.3142,-4.3153,-4.3141,-4.303,-4.3029,-4.3007,-4.2997,-4.2893,-4.2872,-4.2922,-4.28,-4.2793,-4.2835,-4.2909,-4.2738,-4.2739,-4.2947,-4.2956,-4.2964,-4.3164,0,0,0,0,0,0,-4.3211,-4.3206,-4.3246,-4.3155,-4.3142,-4.3185,-4.3034,-4.3008,-4.2998,-4.2979,-4.2899,-4.288,-4.2795,-4.2835,-4.2835,-4.2907,-4.2739,-4.294,-4.2951,-4.2961,-4.315,-4.3178,-4.3202,0,0,0,0,0,-4.3214,-4.3307,-4.3249,-4.3244,-4.3189,-4.319,-4.3182,-4.3081,-4.3005,-4.3044,-4.2978,-4.2883,-4.2902,-4.2841,-4.284,-4.2912,-4.2935,-4.2948,-4.296,-4.3138,-4.3173,-4.3202,0,0,0,0,0,0,-4.341,-4.3293,-4.3227,-4.3294,-4.3253,-4.3157,-4.3203,-4.3121,-4.3101,-4.3085,-4.2961,-4.2945,-4.3004,-4.2962,-4.2897,-4.3015,-4.2903,-4.2917,-4.304,-4.3071,-4.3097,-4.3106,-4.2739,0,0,0,0,0,-4.3461,-4.347,-4.3368,-4.3437,-4.342,-4.3316,-4.3312,-4.3239,-4.3192,-4.3174,-4.311,-4.307,-4.3066,-4.3066,-4.3057,-4.3143,-4.3124,-4.3193,-4.3219,-4.3241,-4.3253,-4.3297,-4.3327,-4.3009,-4.3009,-4.3008,0,0,-4.3566,-4.3504,-4.3517,-4.3475,-4.3434,-4.3448,-4.3303,-4.3323,-4.3332,-4.3177,-4.3213,-4.3166,-4.3112,-4.3177,-4.3202,-4.3144,-4.3337,-4.3257,-4.3275,-4.3276,-4.3313,-4.3343,-4.337,-4.3017,-4.3016,-4.3014,0,0,-4.3765,-4.3719,-4.3771,-4.3734,-4.3674,-4.3605,-4.3618,-4.3535,-4.3497,-4.3531,-4.3415,-4.3425,-4.3422,-4.3388,-4.3371,-4.356,-4.3472,-4.3561,-4.3697,-4.3741,-4.3766,-4.3787,-4.3855,-4.3881,-4.3574,-4.3574,-4.3575,0,-4.3904,-4.3918,-4.3808,-4.3836,-4.3821,-4.3682,-4.3734,-4.3704,-4.3646,-4.364,-4.3575,-4.3568,-4.3522,-4.3578,-4.3625,-4.3615,-4.3627,-4.3569,-4.3771,-4.3791,-4.381,-4.3873,-4.3899,-4.3585,-4.3584,-4.3583,-4.3582,0,-4.4092,-4.4104,-4.4154,-4.41,-4.4091,-4.4132,-4.403,-4.4034,-4.3962,-4.39,-4.3938,-4.3878,-4.3855,-4.3863,-4.3792,-4.391,-4.3875,-4.3793,-4.3678,-4.3853,-4.3911,-4.3934,-4.3601,-4.3597,-4.3594,-4.3591,0,0,-4.4409,-4.4296,-4.4316,-4.429,-4.4216,-4.4224,-4.4259,-4.4236,-4.4242,-4.4208,-4.4235,-4.4236,-4.4159,-4.414,-4.4065,-4.4104,-4.4259,-4.4016,-4.4013,-4.4064,-4.4385,-4.4448,-4.4477,-4.42,-4.4204,-4.4208,-4.439,0,-4.4592,-4.4644,-4.4548,-4.4623,-4.4634,-4.4502,-4.4533,-4.4492,-4.4436,-4.4437,-4.4375,-4.4378,-4.4277,-4.4264,-4.4297,-4.4233,-4.4321,-4.4218,-4.4225,-4.4226,-4.4242,-4.4507,-4.4573,-4.4747,-4.4411,-4.4415,-4.4418,0,-4.4812,-4.4788,-4.4865,-4.4787,-4.4788,-4.4817,-4.4789,-4.4792,-4.4743,-4.47,-4.468,-4.4591,-4.4622,-4.4513,-4.4553,-4.4486,-4.4483,-4.4452,-4.4456,-4.4453,-4.4333,-4.4511,-4.4801,-4.4827,-4.4452,-4.4449,-4.4447,0,-4.5037,-4.5024,-4.5068,-4.505,-4.496,-4.4984,-4.4948,-4.4894,-4.4887,-4.4863,-4.4857,-4.4838,-4.4827,-4.4815,-4.4725,-4.4653,-4.4777,-4.466,-4.4743,-4.4745,-4.4774,-4.4773,-4.5068,-4.4773,-4.4773,-4.4773,-4.4772,0,-4.5251,-4.5304,-4.5167,-4.5195,-4.525,-4.514,-4.5198,-4.5148,-4.5102,-4.5118,-4.5004,-4.5022,-4.4902,-4.4907,-4.4837,-4.4882,-4.4878,-4.4845,-4.4826,-4.4855,-4.486,-4.4851,-4.4837,-4.4779,-4.4778,-4.4777,-4.4775,0,-4.5511,-4.5422,-4.5461,-4.5373,-4.5352,-4.5397,-4.5322,-4.5345,-4.5282,-4.5304,-4.5303,-4.5205,-4.5206,-4.5115,-4.5097,-4.505,-4.5126,-4.5085,-4.5142,-4.5129,-4.5217,-4.5211,-4.5516,-4.5551,-4.5236,-4.5239,-4.5241,0,-4.5653,-4.569,-4.5606,-4.5609,-4.5578,-4.5584,-4.5576,-4.5469,-4.5466,-4.5414,-4.5444,-4.5435,-4.5423,-4.5431,-4.5359,-4.5345,-4.5303,-4.5411,-4.53,-4.5329,-4.5305,-4.5304,-4.5307,-4.5434,-4.5438,-4.5442,-4.5444,0,-4.5916,-4.587,-4.5862,-4.5841,-4.5835,-4.5813,-4.5783,-4.5792,-4.5676,-4.5679,-4.5678,-4.5668,-4.5651,-4.5644,-4.5618,-4.5581,-4.5495,-4.548,-4.5498,-4.5529,-4.5561,-4.5545,-4.5206,-4.5473,-4.547,-4.5468,-4.5466,-4.5465,-4.612,-4.6148,-4.6093,-4.6089,-4.6056,-4.6032,-4.6049,-4.5988,-4.5986,-4.5962,-4.59,-4.591,-4.5862,-4.5817,-4.5789,-4.5797,-4.5743,-4.5769,-4.5776,-4.5784,-4.5802,-4.556,-4.5791,-4.579,-4.5789,-4.5789,-4.5788,0,-4.6377,-4.6336,-4.6333,-4.6296,-4.6294,-4.6211,-4.6175,-4.6179,-4.6189,-4.6151,-4.6141,-4.6142,-4.6136,-4.6064,-4.6049,-4.6069,-4.6029,-4.6069,-4.6066,-4.606,-4.585,-4.5836,-4.6102,-4.6102,-4.6102,-4.6102,-4.6102,-4.6102,-4.651,-4.6552,-4.6501,-4.6526,-4.6484,-4.6493,-4.6479,-4.6457,-4.6426,-4.6431,-4.6425,-4.6378,-4.6327,-4.6309,-4.63,-4.6279,-4.6279,-4.6333,-4.6299,-4.6105,-4.6074,-4.6045,-4.6031,-4.6334,-4.6335,-4.6508,-4.651,-4.6511]},{"header":{"parameterUnit":"m.s-1","parameterCategory":1,"la1":30.2991,"la2":30.254,"lo1":-89.0895,"lo2":-89.0444,"dy":0.0017,"dx":0.0017,"nx":28,"ny":28,"refTime":"2024-06-20T09:00:00:Z","depth":0,"parameterNumber":3,"parameterNumberName":"V-component_of_WINDS"},"data":[0,0,0,0,0,0,0,0,0,0,0,0,0,0,0,0,0,0,0,0,0,0,0,0,0,0,0,0,0,0,0,0,0,0,0,0,0,0,0,0,0,0,0,0,0,0,0,0,0,0,0,0,0,0,0,0,0,0,-0.4449,-0.445,0,-0.4517,-0.4517,-0.4518,-0.4557,-0.4557,-0.4557,-0.4558,-0.4622,-0.4624,-0.4625,0,0,0,0,0,0,0,0,0,0,0,0,0,-0.4346,-0.4348,-0.4449,-0.445,-0.4451,-0.4517,-0.4518,-0.4518,-0.4557,-0.4557,-0.4557,-0.4558,-0.4621,-0.4623,-0.4625,0,0,0,0,0,0,0,0,0,0,0,0,0,-0.44,-0.4349,-0.4449,-0.4478,-0.4481,-0.4516,-0.4518,-0.4519,-0.4557,-0.4557,-0.4557,-0.4558,-0.4621,-0.4623,-0.4625,-0.4635,0,0,-0.4633,-0.4634,0,0,0,0,0,0,0,0,-0.4397,-0.4404,-0.4473,-0.4476,-0.448,-0.4529,-0.4505,-0.4558,-0.4557,-0.4528,-0.4558,-0.4558,-0.459,-0.4595,-0.4607,-0.4638,-0.4641,-0.4633,-0.4634,-0.4635,-0.4636,0,0,0,0,0,0,0,-0.4393,-0.4401,-0.4476,-0.4474,-0.4478,-0.4485,-0.4493,-0.4515,-0.4557,-0.4531,-0.4534,-0.4541,-0.4592,-0.4605,-0.4609,-0.4642,-0.4633,-0.4635,-0.4636,-0.4637,-0.4682,-0.4682,0,0,0,0,0,0,-0.4386,-0.4398,-0.4473,-0.4478,-0.4438,-0.4487,-0.4496,-0.4513,-0.4557,-0.4564,-0.4541,-0.4543,-0.4601,-0.4606,-0.4612,-0.4625,-0.4635,-0.4638,-0.4639,-0.4682,-0.4682,-0.4682,0,0,0,0,0,0,-0.4383,-0.4392,-0.4471,-0.4439,-0.4449,-0.4489,-0.4507,-0.4514,-0.4527,-0.4565,-0.4572,-0.4547,-0.4601,-0.4608,-0.4629,-0.4628,-0.4639,-0.4641,-0.4683,-0.4682,-0.4682,-0.4653,0,0,0,0,0,0,-0.438,-0.4391,-0.4397,-0.4438,-0.4451,-0.4489,-0.4507,-0.4515,-0.4531,-0.4534,-0.4572,-0.4579,-0.4602,-0.4625,-0.4631,-0.4632,-0.4643,-0.4683,-0.4682,-0.4682,-0.4654,-0.4652,-0.465,0,0,0,0,0,-0.4376,-0.4385,-0.4397,-0.4406,-0.4459,-0.4489,-0.4496,-0.4524,-0.4531,-0.4536,-0.456,-0.4577,-0.4627,-0.4627,-0.4634,-0.4635,-0.4683,-0.4683,-0.4682,-0.4655,-0.4652,-0.465,0,0,0,0,0,0,-0.4342,-0.4392,-0.4405,-0.4428,-0.4454,-0.4496,-0.4503,-0.452,-0.4544,-0.4545,-0.4577,-0.4586,-0.4603,-0.4621,-0.462,-0.4646,-0.4657,-0.4657,-0.4634,-0.4631,-0.4629,-0.4625,-0.4645,0,0,0,0,0,-0.4337,-0.4359,-0.44,-0.4417,-0.4429,-0.4464,-0.4478,-0.4497,-0.4525,-0.4535,-0.4561,-0.4585,-0.4606,-0.462,-0.4641,-0.4656,-0.4664,-0.466,-0.4658,-0.4656,-0.4656,-0.4664,-0.4663,-0.468,-0.468,-0.468,0,0,-0.4327,-0.4357,-0.4369,-0.441,-0.4433,-0.4453,-0.4473,-0.4493,-0.4508,-0.4538,-0.456,-0.4579,-0.4608,-0.4626,-0.4635,-0.4641,-0.4653,-0.4655,-0.4653,-0.4655,-0.4664,-0.4662,-0.466,-0.468,-0.468,-0.468,0,0,-0.432,-0.4345,-0.4361,-0.4383,-0.4417,-0.4439,-0.4443,-0.4481,-0.4495,-0.4518,-0.454,-0.4556,-0.4592,-0.4612,-0.4627,-0.4623,-0.4639,-0.4629,-0.4617,-0.4624,-0.4623,-0.4622,-0.462,-0.4619,-0.4629,-0.4629,-0.4629,0,-0.4303,-0.4336,-0.4366,-0.4386,-0.4402,-0.4431,-0.4446,-0.4465,-0.4503,-0.4513,-0.452,-0.4565,-0.4586,-0.4608,-0.4607,-0.4618,-0.4622,-0.4626,-0.4621,-0.462,-0.462,-0.4618,-0.4618,-0.4627,-0.4628,-0.4628,-0.4628,0,-0.4313,-0.4335,-0.4343,-0.4381,-0.4398,-0.4415,-0.4446,-0.4459,-0.4476,-0.4497,-0.4518,-0.4544,-0.4571,-0.4577,-0.4594,-0.4601,-0.4604,-0.4615,-0.4627,-0.4616,-0.4615,-0.4615,-0.4625,-0.4626,-0.4626,-0.4627,0,0,-0.4288,-0.4341,-0.4344,-0.436,-0.4398,-0.4415,-0.4431,-0.4459,-0.4469,-0.4493,-0.4507,-0.4536,-0.4546,-0.4562,-0.458,-0.4587,-0.4581,-0.4597,-0.4598,-0.4593,-0.4589,-0.4581,-0.458,-0.4591,-0.4591,-0.4591,-0.4587,0,-0.4286,-0.432,-0.4347,-0.437,-0.4389,-0.4415,-0.4429,-0.4453,-0.4472,-0.4489,-0.451,-0.4529,-0.4542,-0.4551,-0.4559,-0.458,-0.4581,-0.4581,-0.4603,-0.4604,-0.4596,-0.458,-0.4572,-0.4567,-0.4587,-0.4587,-0.4587,0,-0.429,-0.4314,-0.4339,-0.4374,-0.4383,-0.4396,-0.4422,-0.4439,-0.4464,-0.4478,-0.4495,-0.4514,-0.453,-0.4538,-0.456,-0.456,-0.457,-0.4581,-0.4582,-0.4585,-0.4595,-0.4583,-0.4566,-0.4565,-0.4587,-0.4587,-0.4587,0,-0.4269,-0.4308,-0.4328,-0.4341,-0.4381,-0.4389,-0.4406,-0.4433,-0.4447,-0.4468,-0.4477,-0.45,-0.4512,-0.4528,-0.4552,-0.4556,-0.457,-0.4581,-0.4581,-0.458,-0.4584,-0.4583,-0.4568,-0.4589,-0.4589,-0.4589,-0.4589,0,-0.4265,-0.4279,-0.4319,-0.4331,-0.4346,-0.4375,-0.4389,-0.4408,-0.443,-0.4445,-0.4468,-0.448,-0.451,-0.4526,-0.4544,-0.4558,-0.4564,-0.4574,-0.4578,-0.4572,-0.4571,-0.458,-0.4581,-0.4589,-0.4589,-0.4589,-0.4589,0,-0.4245,-0.4272,-0.4295,-0.4331,-0.4341,-0.4351,-0.4381,-0.4392,-0.4411,-0.4429,-0.4435,-0.4465,-0.4484,-0.4509,-0.4536,-0.4547,-0.456,-0.4567,-0.4552,-0.4555,-0.4553,-0.4552,-0.4543,-0.4542,-0.4563,-0.4563,-0.4563,0,-0.4241,-0.4253,-0.429,-0.4302,-0.4318,-0.4337,-0.4352,-0.4379,-0.4392,-0.4421,-0.4429,-0.445,-0.4469,-0.4498,-0.4521,-0.4541,-0.4549,-0.4544,-0.4552,-0.4545,-0.4548,-0.4548,-0.4549,-0.4542,-0.4542,-0.4541,-0.4541,0,-0.4231,-0.4243,-0.4264,-0.4289,-0.4305,-0.4326,-0.4347,-0.4355,-0.4386,-0.44,-0.442,-0.4435,-0.4462,-0.4482,-0.4505,-0.452,-0.4535,-0.4538,-0.4539,-0.4533,-0.4524,-0.4529,-0.4547,-0.4538,-0.4539,-0.4539,-0.4539,-0.4539,-0.4219,-0.423,-0.4258,-0.4279,-0.4298,-0.4317,-0.4329,-0.435,-0.4368,-0.4393,-0.4407,-0.4427,-0.445,-0.4482,-0.4496,-0.451,-0.4516,-0.4518,-0.4518,-0.4518,-0.4516,-0.4521,-0.4514,-0.4515,-0.4515,-0.4515,-0.4515,0,-0.421,-0.4228,-0.4248,-0.4277,-0.4294,-0.4307,-0.4331,-0.4343,-0.4361,-0.4381,-0.4399,-0.4421,-0.444,-0.4464,-0.4484,-0.4491,-0.4498,-0.4495,-0.4495,-0.4498,-0.451,-0.4507,-0.4489,-0.4489,-0.4489,-0.4489,-0.4489,-0.4489,-0.4207,-0.4226,-0.4241,-0.4269,-0.4287,-0.4308,-0.432,-0.4336,-0.4353,-0.4377,-0.4394,-0.4409,-0.443,-0.4452,-0.4469,-0.4475,-0.4482,-0.4476,-0.4485,-0.4495,-0.4498,-0.45,-0.4498,-0.4478,-0.4478,-0.4472,-0.4472,-0.4472]}]]